Regional Weather Roundup
Issued by NWS Huntsville, AL

Home | Current Version | Previous Version | Text Only | Print | Product List | Glossary On
Versions: 1 2 3 4 5 6 7 8 9 10 11 12 13 14 15 16 17 18 19 20 21 22 23 24 25 26 27
000
ASUS44 KHUN 010610
RWRHUN

WEATHER ROUNDUP FOR THE TENNESSEE VALLEY
NATIONAL WEATHER SERVICE HUNTSVILLE AL
100 AM CDT SAT NOV 01 2014

ALZ001>004-010700-
NORTHWEST ALABAMA

CITY           SKY/WX    TMP DP  RH WIND       PRES   REMARKS
COURTLAND HCN    N/A     39 N/A N/A NW10        N/A  WCI  32
RUSSELLVILLE     N/A     37 N/A N/A MISG        N/A
SHOALS AIRPORT CLEAR     39  24  55 NW9       30.19F WCI  33
6HR MIN TEMP:  39; 6HR MAX TEMP:  47;

$$

ALZ005>007-016-010700-
NORTH CENTRAL ALABAMA

CITY           SKY/WX    TMP DP  RH WIND       PRES   REMARKS
DECATUR AP     CLEAR     37  25  61 NW9       30.15F WCI  30
6HR MIN TEMP:  37; 6HR MAX TEMP:  44;

HUNTSVILLE AP  PTCLDY    38  26  62 NW9       30.13F WCI  31
6HR MIN TEMP:  38; 6HR MAX TEMP:  45;

HUN NWS/UAH      N/A     39  24  55 W6          N/A
MERIDIANVILLE  MOCLDY    39  23  52 NW16G25   30.11F WCI  30
REDSTONE ARSN  MOCLDY    38  27  65 NW12      30.12F WCI  30
VINEMONT AP    FAIR      36  25  66 NW8       30.14F WCI  29
$$

ALZ008>010-010700-
NORTHEAST ALABAMA

CITY           SKY/WX    TMP DP  RH WIND       PRES   REMARKS
ALBERTVILLE    PTCLDY    36  30  80 NW15G24   30.07F WCI  26
FORT PAYNE     MOCLDY    37  25  60 NW8G16    30.05S WCI  31
SCOTTSBORO AP  MOCLDY    39  27  60 N9G17     30.08F WCI  33
SCOTTSBORO HCN   N/A     39 N/A N/A MISG        N/A
VALLEY HEAD      N/A     37 N/A N/A MISG        N/A
$$

TNZ076-096-097-010700-
SOUTHEASTERN MIDDLE TENNESSEE

CITY           SKY/WX    TMP DP  RH WIND       PRES   REMARKS
TULLAHOMA      CLOUDY    37  25  60 N21       30.07F WCI  27
WINCHESTER     CLOUDY    37  27  65 NW14      30.07S WCI  29
$$

...SURROUNDING SITES...

CITY           SKY/WX    TMP DP  RH WIND       PRES   REMARKS
ATLANTA        PTCLDY    38  27  64 NW13G23   29.95F WCI  30
ANNISTON       CLEAR     40  25  55 W14G23    30.09F WCI  32
BIRMINGHAM     CLEAR     39  24  55 NW8       30.16F WCI  33
CHATTANOOGA    LGT RAIN  38  32  79 NW9       30.03F WCI  31
CORINTH        FAIR      37  27  65 NW9       30.24F WCI  31
DALTON         CLOUDY    37  32  81 NW17G24   30.00S WCI  28
GADSDEN        PTCLDY    37  23  56 NW8       30.10F WCI  31
GOLDEN TRNGL   CLEAR    N/A N/A N/A NW7       30.24F
HALEYVILLE     FAIR      36  24  62 NW13G22   30.19F WCI  27
JACKSON TN     CLEAR     38  24  57 N12       30.28S WCI  30
MEMPHIS        CLEAR     40  22  48 NW10      30.32F WCI  33
NASHVILLE      CLOUDY    40  26  57 NW21G31   30.13R WCI  30
OXFORD MS      FAIR      37  25  60 NW10      30.31F WCI  30
ROME           CLOUDY    41  28  60 NW14      30.02F
SAVANNAH       CLEAR     37  21  52 NW13      30.23S WCI  29
SELMER         CLEAR     37  26  65 NW8       30.23  WCI  31
TUPELO         CLEAR     39  25  57 N9        30.25F WCI  33
TUSCALOOSA     CLEAR     40  27  59 NW8       30.22S WCI  34
$$

...GULF COAST WEATHER...

CITY           SKY/WX    TMP DP  RH WIND       PRES   REMARKS
GULFPORT       CLEAR     54  35  48 N14G24    30.17S
PASCAGOULA     CLEAR     53  33  46 N17G25    30.16R
MOBILE         CLEAR     51  32  48 N18G29    30.17R
GULF SHORES    CLEAR     54  37  53 N9G23     30.12R
PENSACOLA      CLEAR     54  38  54 NW16G26   30.10R
DESTIN         MOCLDY    59  45  59 N16G26    30.06R
PANAMA CITY    CLEAR     58  47  66 N17G26    30.02R
APPALACHICOLA  CLEAR     60  47  61 N16       29.99R
$$




USA.gov is the U.S. government's official web portal to all federal, state and local government web resources and services.